Regional Weather Roundup
Issued by NWS

Home | Current Version | Previous Version | Graphics & Text | Print | Product List | Glossary On
Versions: 1 2 3 4 5 6 7 8 9 10 11 12 13 14 15 16 17 18 19 20 21 22 23 24 25 26 27 28 29 30 31 32 33 34 35 36 37 38 39 40 41 42 43 44 45 46 47 48 49 50
000
ASUS43 KOAX 011310
RWRNE

WEATHER ROUNDUP FOR NEBRASKA
NATIONAL WEATHER SERVICE OMAHA NE
800 AM CDT SAT OCT 01 2016

NOTES: SATELLITE DATA IS BEING USED TO AUGMENT CLOUD COVER ABOVE
       12000 FEET.
       "FAIR" INDICATES FEW OR NO CLOUDS BELOW 12,000 FEET WITH NO
       SIGNIFICANT WEATHER AND/OR OBSTRUCTIONS TO VISIBILITY.

  * THESE STATIONS DO NOT REPORT WEATHER SUCH AS RAIN...SNOW OR FOG.

NEZ001>004-019>022-054>056-011400-
NEBRASKA PANHANDLE

CITY           SKY/WX    TMP DP  RH WIND       PRES   REMARKS
SCOTTSBLUFF    CLEAR     47  43  86 CALM      30.08R
ALLIANCE       CLEAR     44  42  93 SE6       30.07S
CHADRON        CLEAR     49  44  83 W7        30.03S
KIMBALL        CLEAR     44  43  99 W3        30.12S
SIDNEY         CLEAR     40  39  97 SW6       30.11S
$$

NEZ057>060-069>072-079>082-011400-
SOUTHWEST NEBRASKA

CITY           SKY/WX    TMP DP  RH WIND       PRES   REMARKS
NORTH PLATTE   PTCLDY    48  44  86 E6        30.12S
IMPERIAL       CLEAR     46  43  89 SE6       30.11S
LEXINGTON      CLOUDY    46  43  90 CALM      30.13S
MCCOOK         CLOUDY    48  45  89 CALM      30.13R
OGALLALA       CLEAR     46  43  89 CALM      30.11R
$$

NEZ005>010-023>029-035>040-094-011400-
NORTH CENTRAL NEBRASKA

CITY           SKY/WX    TMP DP  RH WIND       PRES   REMARKS
VALENTINE      CLOUDY    47  43  86 E7        30.07F
AINSWORTH      CLEAR     50  45  84 S8        30.09F
BROKEN BOW     PTCLDY    42  41  96 CALM      30.13S
O`NEILL        PTCLDY    46  42  86 S3        30.13S
ORD            PTCLDY    43  39  86 CALM      30.13S
THEDFORD       CLOUDY    48  46  92 SE3       30.11R
$$

NEZ041-046>049-061>064-073>077-083>087-011400-
SOUTH CENTRAL NEBRASKA

CITY           SKY/WX    TMP DP  RH WIND       PRES   REMARKS
GRAND ISLAND   PTCLDY    50  47  89 CALM      30.15S
AURORA         PTCLDY    49  49 100 CALM      30.15S
HASTINGS       PTCLDY    49  45  86 CALM      30.16R
HEBRON         CLOUDY    48  47  96 CALM      30.15R
HOLDREGE       CLOUDY    47  44  86 CALM      30.13S
KEARNEY *      PTCLDY    48  43  81 CALM      30.14R
YORK           PTCLDY    46  46 100 CALM      30.16R
$$

NEZ011>018-030>034-042>045-011400-
NORTHEAST NEBRASKA

CITY           SKY/WX    TMP DP  RH WIND       PRES   REMARKS
NORFOLK        CLEAR     45  44  97 CALM      30.15S FOG
ALBION         MOCLDY    45  43  94 CALM      30.15S
BLAIR          CLOUDY    57  55  91 N5        30.15R
FREMONT        CLOUDY    54  52  94 CALM      30.16S
TEKAMAH        CLOUDY    57  54  89 W3        30.15S
WAYNE          CLOUDY    42  41  97 CALM      30.17R
$$

NEZ050>053-065>068-078-088>093-011400-
SOUTHEAST NEBRASKA

CITY           SKY/WX    TMP DP  RH WIND       PRES   REMARKS
LINCOLN        PTCLDY    48  46  93 CALM      30.16S
OMAHA EPPLEY   CLOUDY    59  54  83 N3        30.15S
BEATRICE       FOG       47  47 100 CALM      30.15R VSB 1
FALLS CITY     CLOUDY    56  54  93 CALM      30.13S
NEBRASKA CITY  CLOUDY    55  55  98 CALM      30.15R
PLATTSMOUTH    CLOUDY    56  53  88 CALM      30.15R
$$

NEZ044-045-051>053-067-011400-
OMAHA AREA

CITY           SKY/WX    TMP DP  RH WIND       PRES   REMARKS
OMAHA EPPLEY   CLOUDY    59  54  83 N3        30.15S
BLAIR          CLOUDY    57  55  91 N5        30.15R
FREMONT        CLOUDY    54  52  94 CALM      30.16S
MILLARD        CLOUDY    59  54  84 CALM      30.15S
OFFUTT AFB     CLOUDY    58  58  99 NE2       30.14S
PLATTSMOUTH    CLOUDY    56  53  88 CALM      30.15R
WAHOO          FAIR      46  45  96 NW3       30.15S FOG
$$



USA.gov is the U.S. government's official web portal to all federal, state and local government web resources and services.